Regional Weather Roundup
Issued by NWS Kansas City/Pleasant Hill, MO

Home | Current Version | Previous Version | Text Only | Print | Product List | Glossary On
Versions: 1 2 3 4 5 6 7 8 9 10 11 12 13 14 15 16 17 18 19 20 21 22 23 24 25 26 27 28 29 30 31 32 33 34 35 36 37 38 39 40 41 42 43 44 45 46 47 48 49 50
331
ASUS43 KEAX 270110
RWREAX

WEATHER ROUNDUP FOR EASTERN KANSAS AND NORTHWEST MISSOURI
NATIONAL WEATHER SERVICE KANSAS CITY/PLEASANT HILL MO
800 PM CDT THU MAY 26 2016

KSZ040-057-103>105-MOZ028-029-037-043-270200-
...KANSAS CITY METROPOLITAN AREA...

CITY           SKY/WX    TMP DP  RH WIND       PRES   REMARKS
K.C. INTL      TSTM      63  58  83 NE20G25   29.83R
K.C. DOWNTOWN  CLOUDY    65  59  81 E14G24    29.83S
LEES SUMMIT    LGT RAIN  62  60  93 NE15      29.85R
OLATHE - IXD   TSTM      63  61  93 NE15      29.81S
OLATHE - OJC   CLOUDY    62  60  93 E22G31    29.80F
LAWRENCE       TSTM      63  61  93 E17G25    29.81R

$$

MOZ001>008-011>017-020>025-030>033-038>040-044>046-053-054-270200-
...NORTHERN AND CENTRAL MISSOURI...

CITY           SKY/WX    TMP DP  RH WIND       PRES   REMARKS
ST. JOSEPH     LGT RAIN  63  60  90 N15       29.84R
WHITEMAN AFB   TSTM      64  64 100 NE7       29.89R FOG
CLINTON        NOT AVBL
SEDALIA        TSTM      68  64  87 MISG      29.88R
WARSAW         NOT AVBL
CHILLICOTHE      N/A     64  63  96 N6        29.93F
KIRKSVILLE     LGT RAIN  69  62  78 N12       29.90R

$$

MOZ041-047>049-056>058-063>065-088>090-097-270200-
...EASTERN AND SOUTHERN MISSOURI...

CITY           SKY/WX    TMP DP  RH WIND       PRES   REMARKS
ST. LOUIS INTL CLOUDY    77  65  66 S9        29.88R
SPIRIT OF STL  CLOUDY    75  68  78 VRB3      29.86R
COLUMBIA       TSTM      73  68  84 W8        29.82F
JEFFERSON CITY TSTM      72  66  81 W9        29.84S
ROLLA          CLOUDY    76  70  82 SE10      29.85S
SPRINGFIELD    LGT RAIN  72  61  68 S20       29.83S
BRANSON        CLOUDY    66  63  88 S14       29.87F
JOPLIN         CLOUDY    73  60  63 S13G22    29.80F
WEST PLAINS    CLOUDY    76  65  68 S21G31    29.94R

$$

IAZ060-094-KSZ022-034>040-054-083-096-NEZ052-066-093-270200-
...KANSAS...SOUTHEAST NEBRASKA AND IOWA...

CITY           SKY/WX    TMP DP  RH WIND       PRES   REMARKS
TOPEKA         TSTM      64  60  87 N28G35    29.79S FOG
MANHATTAN      LGT RAIN  65  62  90 E14       29.77F
EMPORIA        TSTM      63  62  97 NW13G26   29.80R FOG
CHANUTE        PTCLDY    79  69  71 S24G31    29.76S
WICHITA        PTCLDY    81  65  58 S17       29.67R
OMAHA          CLOUDY    65  58  78 E21       29.85R
LINCOLN        LGT RAIN  63  60  90 NE9       29.86F FOG
FALLS CITY     RAIN      65  64  97 NE7       29.88R
LAMONI         LGT RAIN  62  61  96 E8        29.90F
DES MOINES     RAIN      66  60  81 SW10      29.97S

$$





USA.gov is the U.S. government's official web portal to all federal, state and local government web resources and services.